Regional Weather Roundup
Issued by NWS Wakefield, VA

Home | Current Version | Previous Version | Graphics & Text | Print | Product List | Glossary On
Versions: 1 2 3 4 5 6 7 8 9 10 11 12 13 14 15 16 17 18 19 20 21 22 23 24 25 26 27
000
ASUS41 KAKQ 190215
RWRAKQ

REGIONAL WEATHER ROUNDUP
NATIONAL WEATHER SERVICE WAKEFIELD VA
1000 PM EDT MON SEP 18 2017

Note: "fair" indicates few or no clouds below 12,000 feet with no
significant weather and/or obstructions to visibility. * = Denotes
station may not report precipitation (e.g., rain,snow,etc.),
thunder or fog.

VAZ042-051-052>054-056-190300-
NORTHERN VIRGINIA

CITY           SKY/WX    TMP DP  RH WIND       PRES   REMARKS
WASH NATIONAL  MOCLDY    72  68  87 N10       30.05S
DULLES         PTCLDY    69  67  93 NE8       30.06S
FORT BELVOIR   CLEAR     68  65  89 CALM      30.04S
QUANTICO       CLEAR     72  68  87 N6        30.05S
FREDERICKSBRG* CLEAR     69  69 100 CALM      30.03F
STAFFORD*      CLEAR     69  69 100 N3        30.08S
WARRENTON      PTCLDY    70  64  82 CALM      30.05S
CULPEPER*      CLEAR     69  67  93 CALM      30.06F
MANASSAS*      CLOUDY    71  66  84 N5        30.06S
LEESBURG*      CLEAR     70  68  94 NE3       30.08S
WINCHESTER     MOCLDY    64  63  94 CALM      30.08S
FRONT ROYAL*   MOCLDY    68  64  88 CALM      30.07R
LURAY*         PTCLDY    70  64  83 NE5       30.07S
$$

VAZ048-049-060>072-079>083-190300-
CENTRAL AND SOUTH CENTRAL VIRGINIA

CITY           SKY/WX    TMP DP  RH WIND       PRES   REMARKS
RICHMOND       PTCLDY    71  68  90 N10       30.01F
CHESTERFIELD*  NOT AVBL
PETERSBURG*    CLEAR     71  66  86 N7        30.01F
HANOVER        CLEAR     70  67  90 CALM      30.03F
TAPPAHANNOCK*  PTCLDY    73  71  93 N5        30.02F
QUINTON*       FAIR      70  70 100 N6        30.00F
CHARLOTTSVILLE PTCLDY    73  66  78 NE7       30.06S
GORDONSVILLE*  CLEAR     67  66  98 CALM      30.05S
ORANGE*        PTCLDY    68  64  88 CALM      30.05F
LOUISA*        CLEAR     68  64  88 NE3       30.05S
BUMPASS*       FAIR      67  67 100 CALM      30.04S
FARMVILLE*     CLEAR     66  66 100 CALM      30.03S
CREWE*         FAIR      67  67 100 CALM      30.03S
FORT PICKETT*  FAIR      68  68 100 N7        30.02F
CHASE CITY*    FAIR      69  69 100 N5        30.03S
CLARKSVILLE*   MOCLDY    72  70  94 N3        30.02S
SOUTH HILL*    CLEAR     68  68  99 N6        30.07S
LAWRENCEVILLE* FAIR      69  67  94 CALM      30.01S
EMPORIA*       CLEAR     70  68  94 NW6       30.00F
$$

VAZ088>098-190300-
SOUTHEAST VIRGINIA

CITY           SKY/WX    TMP DP  RH WIND       PRES   REMARKS
NORFOLK        MOCLDY    74  69  85 N17       29.94F
VIRGINIA BEACH MOCLDY    73  67  81 N12G22    29.92F
NORFOLK NAVAL  CLOUDY    75  68  78 N16G29    29.97S
WEST POINT*    PTCLDY    72  70  94 CALM      30.01F
SALUDA*        MOCLDY    72  69  93 N7        29.99F
NEWPORT NEWS   CLEAR     73  67  81 N9G18     29.97F
LANGLEY AFB    PTCLDY    74  68  82 N13G24    29.96S
FORT EUSTIS    CLEAR     73  68  85 N8        29.95F
WILLIAMSBURG*  CLEAR     72  70  94 CALM      29.99F
HR EXEC AP*    CLOUDY    73  69  87 N8        29.96S
FRANKLIN*      MOCLDY    71  68  90 N6        29.98S
US460-WAKEFLD  CLOUDY    71  70  96 CALM      29.98F
$$

VAZ020-022-025-037-045-190300-
WEST CENTRAL AND SOUTHWEST VIRGINIA

CITY           SKY/WX    TMP DP  RH WIND       PRES   REMARKS
STAUNTON*      PTCLDY    66  63  90 CALM      30.10R
WAYNESBORO*    MOCLDY    68  66  92 SE6       30.09S
HOT SPRINGS VA CLEAR     63  61  92 CALM      30.17F
LYNCHBURG      MOCLDY    68  65  90 NE6       30.06R
DANVILLE       PTCLDY    69  67  93 NE6       30.03R
SOUTH BOSTON*  FAIR      69  67  94 CALM      30.03S
MARTINSVILLE   CLEAR     64  63  97 CALM      30.07R FOG
ROANOKE        CLEAR     69  65  86 CALM      30.07S
BLACKSBURG     MOCLDY    64  63  94 CALM      30.13S
DUBLIN*        CLEAR     66  63  91 CALM      30.11S
MARION*        CLOUDY    64  60  87 W3        30.15R
HILLSVILLE*    MOCLDY    66  60  81 CALM      30.12R
RICHLANDS*     FAIR      67  57  69 CALM      30.14S
WISE*          CLEAR     66  55  68 CALM      30.14S
ABINGDON*      CLEAR     65  60  83 CALM      30.10S
$$

MDZ021>025-VAZ099-100-190300-
SOUTHERN MARYLAND AND THE DELMARVA PENINSULA

CITY           SKY/WX    TMP DP  RH WIND       PRES   REMARKS
PATUXENT RIVER MOCLDY    72  68  87 NE12      30.01F
BAY BRIDGE APT CLEAR     72  66  83 NE5       30.04F
LEONARDTOWN    CLEAR     72  64  78 NE5       30.04S
DOVER          CLOUDY    72  66  83 N9        30.02F
GEORGETOWN     CLOUDY    73  68  84 NE12      30.01F
EASTON         CLEAR     72  66  83 NE8       30.07F
CAMBRIDGE      CLEAR     72  66  83 N7        30.02F
SALISBURY      CLOUDY    72  69  90 N8        29.99F
OCEAN CITY     CLOUDY    71  70  96 N17G25    29.98F
WALLOPS ISLAND CLOUDY    71  70  96 N13       29.96F
ACCOMACK*      CLOUDY    72  68  89 N10G16    29.96F
$$

NCZ012>017-030>032-190300-
NORTH CENTRAL AND EASTERN NORTH CAROLINA

CITY           SKY/WX    TMP DP  RH WIND       PRES   REMARKS
ROANOKE RAPIDS FAIR      72  68  88 MISG      29.99S
RALEIGH        PTCLDY    71  66  84 N3        30.02R
ELIZABETH CITY MOCLDY    73  70  90 N17       29.91F
AHOSKIE*         N/A     72  69  89 N6        29.97F
EDENTON*       MOCLDY    73  70  91 N7        29.94F
CURRITUCK*     CLOUDY    73  69  88 N17G25    29.92F
KILL DEVIL HLS MOCLDY    72  69  92 N10G22    29.87S
MANTEO         CLOUDY    73  69  88 N18G31    29.88S
CAPE HATTERAS  MOCLDY    75  72  90 N10G24    29.84S
TARBORO*       NOT AVBL
GOLDSBORO      CLEAR     73  73 100 NW5       29.96S
WASHINGTON     PTCLDY    72  70  93 N9        29.95F
GREENVILLE     LGT RAIN  72  70  94 N6        29.98F
NEW BERN       PTCLDY    73  70  90 N8        29.94F
WILMINGTON     CLEAR     73  68  84 N7        29.95R
$$

VAZ048-190300-
ELSEWHERE

CITY           SKY/WX    TMP DP  RH WIND       PRES   REMARKS
HARRISBURG PA  PTCLDY    69  66  90 CALM      30.08S
BALTIMORE      PTCLDY    71  68  90 NE9       30.05S
ANNAPOLIS      PTCLDY    75  71  87 NE7       30.04F
ANDREWS AFB    CLEAR     68  66  93 NE7       30.03F
PHILADELPHIA   CLOUDY    73  65  75 NE12      30.06F
HENDERSON NC   PTCLDY    66  63  89 CALM      30.02S
GREENSBORO     PTCLDY    70  66  87 NE3       30.03R
ROCKY MOUNT    PTCLDY    69  68  96 N5        29.99S
$$

VAZ100-190300-
MARINE

STATION/POSITION TIME  TEMP    WIND        PRES    WAVE   SWELL
                       AIR SEA DIR/SP/G            HT/PER HT/PER
                 (UTC) (F)     (DEG/KT/KT) (MB)    (FT/S) (FT/S)
BRANDYWINE LGT   0148           40/ 22/ 24 1016.5F
CAPE MAY NJ      0136   71 75   40/  6/  9 1015.7F
LEWES DE         0136   72 74   40/ 18/ 19 1015.9F
15NM E FENWICK I 0150   72 72   20/ 21/ 27 1014.6F   9/15   7/15
OCEAN-CITY-INLET 0136   71 74   40/ 11/ 18 1015.3F
WACHAPREAGUE VA  0136   72 76   10/  9/ 13 1014.3F
THOMAS POINT MD  0200   73 76   50/ 14/ 16   N/A
GOOSES REEF MD   0200   75 75   40/ 14/ 17 1017.0    3
COVE POINT MD    0136   73      40/ 15/ 17 1017.2F
SOLOMONS ISLAND  0136   73 76   20/  8/ 11 1016.1F
BISHOPS HEAD MD  0136   72 76   30/ 11/ 15 1016.3R
PINEY POINT MD   0148           50/  6/  8   N/A
POTOMAC MD       0200   74 75   50/ 14/ 17 1015.3    1/ 2
CAMBRIDGE MD     0148                      1017.4F
LEWISETTA VA     0136   74 77   40/  7/ 11 1016.0F
RAPPAHANNOCK LGT 0148           20/ 24/ 28 1015.2F
STINGRAY PT      0200   74 76   40/ 17/ 21 1015.1    3/ 4
YORK RVR RNG VA  0136   74      30/ 21/ 25 1015.2F
YORKTOWN VA      0142   74 76   10/ 12/ 17 1014.7S
JAMESTOWN VA     0200      78   10/  8/ 12   N/A     0
DOMINION TERM VA 0142   74      60/  3/  7 1014.6F
KIPTOPEKE VA     0142      76   20/  7/ 12   N/A
CHES BAY BRIDGE  0142   74 75   30/ 21/ 24 1013.7F
CAPE HENRY VA    0142   74      10/ 21/ 25   N/A
WILLOUBY STN VA  0148           10/ 18/ 21 1014.3F
S CRANEY ISL VA  0142   75      30/ 15/ 23 1014.0F
CAPE HENRY BUOY  0200      74                N/A     8/13   3/13
1ST LANDING BUOY 0200   73 74              1013.6    4/ 5
64NM E OF VA BCH 0150   72 73  360/ 27/ 35 1009.7F  12/13  10/13
DUCK PIER NC     0142   74 76   10/ 28/ 31 1010.9F
44100 DUCK FRF   0135      74                N/A    12/13   7/13
44056 DUCK FRF   0200      76                N/A    11/13   8/13
OREGON INLET NC  0148          350/ 22/ 29 1010.6F
HATTERAS NC      0142   75 78  350/ 26/ 30 1010.7F
DIAMOND SHLS NC  0150   75 80  350/ 25/ 29 1008.9F  14/12  11/12
CAPE LOOKOUT NC  0200   74     350/ 16/ 18 1012.3F
$$




USA.gov is the U.S. government's official web portal to all federal, state and local government web resources and services.